Hourly Data Report for October 05, 2015

All times are specified in Local Standard Time (LST). Add 1 hour to adjust for Daylight Saving Time where and when it is observed.

RANKIN INLET A
NUNAVUT

62°48'38.000" N
92°06'53.000" W
32.30 m
2303405
71083
YRT

Download Data

Hourly Data (October 2015)
Hourly Data Report for October 5, 2015
Temp Definition
°C
Dew Point Temp Definition
°C
Rel Hum Definition
%
Wind Dir Definition
10's deg

Wind Spd Definition
km/h
Visibility Definition
km
Stn Press Definition
kPa
Hmdx Definition


Wind Chill Definition


Weather Definition


TIME
00:00 Legend Double Dagger -2.8 -4.4 89 35 9 24.1 102.03   -6 Clear
01:00 Legend Double Dagger -2.8 -4.7 87 2 6 24.1 102.01   -5 LegendNANA
02:00 Legend Double Dagger -2.7 -4.1 90 1 7 24.1 101.97   -6 LegendNANA
03:00 Legend Double Dagger -1.8 -4.0 85 3 10 24.1 101.93   -5 Clear
04:00 Legend Double Dagger -1.3 -4.0 82 4 8 24.1 101.89   -4 LegendNANA
05:00 Legend Double Dagger -1.2 -3.7 83 3 8 24.1 101.86   -4 LegendNANA
06:00 Legend Double Dagger -1.3 -4.3 80 3 9 24.1 101.79   -5 Cloudy
07:00 Legend Double Dagger -1.1 -3.6 83 8 8 24.1 101.75   -4 LegendNANA
08:00 Legend Double Dagger -0.2 -3.9 76 7 6 24.1 101.72   -2 LegendNANA
09:00 Legend Double Dagger 0.3 -3.3 77 7 13 24.1 101.64     Mostly Cloudy
10:00 Legend Double Dagger -0.1 -1.9 88 10 11 1.2 101.59   -4 Snow
11:00 Legend Double Dagger 0.2 -0.8 93 11 16 4.8 101.51     Snow Showers
12:00 Legend Double Dagger 2.5 0.4 86 15 22 9.7 101.43     Mostly Cloudy
13:00 Legend Double Dagger 1.5 -0.4 87 16 16 9.7 101.34     LegendNANA
14:00 Legend Double Dagger 2.2 -0.4 83 15 18 16.1 101.26     LegendNANA
15:00 Legend Double Dagger 2.3 -0.5 82 16 19 9.7 101.22     Mostly Cloudy
16:00 Legend Double Dagger 2.0 -0.1 86 15 23 16.1 101.16     LegendNANA
17:00 Legend Double Dagger 2.0 -0.3 85 14 20 16.1 101.10     LegendNANA
18:00 Legend Double Dagger 1.6 -0.2 88 14 16 8.1 101.05     Snow Showers
19:00 Legend Double Dagger 0.9 -0.1 93 13 18 16.1 100.99     Rain Showers,Snow Showers
20:00 Legend Double Dagger 1.9 0.1 88 15 30 16.1 100.93     Rain Showers,Snow Showers
21:00 Legend Double Dagger 1.3 0.1 92 13 25 24.1 100.87     Rain Showers,Snow Showers
22:00 Legend Double Dagger 1.9 0.3 89 13 25 16.1 100.81     Rain Showers,Snow Showers
23:00 Legend Double Dagger 1.7 -0.2 87 14 25 16.1 100.76     Rain Showers,Snow Showers

Notes on Data Quality.

Legend

  • E = Estimated
  • M = Missing
  • NA = Not Available
  • ‡ = Partner data that is not subject to review by the National Climate Archives
Date modified: